User: anonymous   Login
Location: Hancock Field Station
(44.9202°N, 120.4259°W)
Time: 00:59:04
(UTC-08:00)
Language:

Nadezhda 4 Rocket - Orbit

View from above orbital plane
View from above orbital plane
View from above satellite
View from above satellite

Ground track
Ground track

The orbit data is extracted from the following two-line orbital elements,

1 23180U 94041B   17057.45531089 -.00000003  00000-0 -18332-4 0  9993
2 23180  82.9475  13.4235 0028958 172.4006 327.4051 13.77935400137654
Epoch (UTC): 26 February 2017 10:55:38
Eccentricity: 0.0028958
inclination: 82.9475°
perigee height: 950 km
apogee height: 992 km
right ascension of ascending node: 13.4235°
argument of perigee: 172.4006°
revolutions per day: 13.77935400
mean anomaly at epoch: 327.4051°
orbit number at epoch: 13765

The dashed part of the orbit path shows where the satellite is in the earth's shadow,  

DLR